Year,Month,Day,Hour,Minute,Value (Times are PST for windspeed in km/hr)
2010,05,20,00,00,10.70
2010,05,20,00,01,5.80
2010,05,20,00,02,11.10
2010,05,20,00,03,12.40
2010,05,20,00,04,13.60
2010,05,20,00,05,9.50
2010,05,20,00,06,8.50
2010,05,20,00,07,10.70
2010,05,20,00,08,8.30
2010,05,20,00,09,13.50
2010,05,20,00,10,13.90
2010,05,20,00,11,8.20
2010,05,20,00,12,6.70
2010,05,20,00,13,3.40
2010,05,20,00,14,7.60
2010,05,20,00,15,5.00
2010,05,20,00,16,9.40
2010,05,20,00,17,10.10
2010,05,20,00,18,8.30
2010,05,20,00,19,9.70
2010,05,20,00,20,8.30
2010,05,20,00,21,13.40
2010,05,20,00,22,10.40
2010,05,20,00,23,10.80
2010,05,20,00,24,10.70
2010,05,20,00,25,12.90
2010,05,20,00,26,7.60
2010,05,20,00,27,6.70
2010,05,20,00,28,4.70
2010,05,20,00,29,12.40
2010,05,20,00,30,18.00
2010,05,20,00,31,12.70
2010,05,20,00,32,3.80
2010,05,20,00,33,4.70
2010,05,20,00,34,4.80
2010,05,20,00,35,7.60
2010,05,20,00,36,10.40
2010,05,20,00,37,11.90
2010,05,20,00,38,10.50
2010,05,20,00,39,9.70
2010,05,20,00,40,10.50
2010,05,20,00,41,15.40
2010,05,20,00,42,14.30
2010,05,20,00,43,18.90
2010,05,20,00,44,13.50
2010,05,20,00,45,13.40
2010,05,20,00,46,11.60
2010,05,20,00,47,14.10
2010,05,20,00,48,7.80
2010,05,20,00,49,11.90
2010,05,20,00,50,9.80
2010,05,20,00,51,11.00
2010,05,20,00,52,6.20
2010,05,20,00,53,6.00
2010,05,20,00,54,6.10
2010,05,20,00,55,12.30
2010,05,20,00,56,14.30
2010,05,20,00,57,7.30
2010,05,20,00,58,10.80
2010,05,20,00,59,14.20
2010,05,20,01,00,9.80
2010,05,20,01,01,7.70
2010,05,20,01,02,10.40
2010,05,20,01,03,8.60
2010,05,20,01,04,9.40
2010,05,20,01,05,7.00
2010,05,20,01,06,9.60
2010,05,20,01,07,9.00
2010,05,20,01,08,4.80
2010,05,20,01,09,13.50
2010,05,20,01,10,10.10
2010,05,20,01,11,15.00
2010,05,20,01,12,11.80
2010,05,20,01,13,18.40
2010,05,20,01,14,21.60
2010,05,20,01,15,25.20
2010,05,20,01,16,15.10
2010,05,20,01,17,14.60
2010,05,20,01,18,20.50
2010,05,20,01,19,15.60
2010,05,20,01,20,13.70
2010,05,20,01,21,16.10
2010,05,20,01,22,13.10
2010,05,20,01,23,18.60
2010,05,20,01,24,8.10
2010,05,20,01,25,8.80
2010,05,20,01,26,9.70
2010,05,20,01,27,9.80
2010,05,20,01,28,7.20
2010,05,20,01,29,6.20
2010,05,20,01,30,3.80
2010,05,20,01,31,6.60
2010,05,20,01,32,12.50
2010,05,20,01,33,8.70
2010,05,20,01,34,9.60
2010,05,20,01,35,9.90
2010,05,20,01,36,12.30
2010,05,20,01,37,10.10
2010,05,20,01,38,10.70
2010,05,20,01,39,14.60
2010,05,20,01,40,10.50
2010,05,20,01,41,13.30
2010,05,20,01,42,6.10
2010,05,20,01,43,8.00
2010,05,20,01,44,5.60
2010,05,20,01,45,12.10
2010,05,20,01,46,7.90
2010,05,20,01,47,3.90
2010,05,20,01,48,5.20
2010,05,20,01,49,13.20
2010,05,20,01,50,11.60
2010,05,20,01,51,15.40
2010,05,20,01,52,16.20
2010,05,20,01,53,13.20
2010,05,20,01,54,11.60
2010,05,20,01,55,20.80
2010,05,20,01,56,9.40
2010,05,20,01,57,18.50
2010,05,20,01,58,12.10
2010,05,20,01,59,8.20
2010,05,20,02,00,11.30
2010,05,20,02,01,10.10
2010,05,20,02,02,16.10
2010,05,20,02,03,13.50
2010,05,20,02,04,18.00
2010,05,20,02,05,13.00
2010,05,20,02,06,12.50
2010,05,20,02,07,8.70
2010,05,20,02,08,14.30
2010,05,20,02,09,16.10
2010,05,20,02,10,13.60
2010,05,20,02,11,10.10
2010,05,20,02,12,11.50
2010,05,20,02,13,21.70
2010,05,20,02,14,21.90
2010,05,20,02,15,17.60
2010,05,20,02,16,28.30
2010,05,20,02,17,17.20
2010,05,20,02,18,12.60
2010,05,20,02,19,6.10
2010,05,20,02,20,3.40
2010,05,20,02,21,10.40
2010,05,20,02,22,16.70
2010,05,20,02,23,17.50
2010,05,20,02,24,11.90
2010,05,20,02,25,8.50
2010,05,20,02,26,15.40
2010,05,20,02,27,10.80
2010,05,20,02,28,10.60
2010,05,20,02,29,17.10
2010,05,20,02,30,8.50
2010,05,20,02,31,12.80
2010,05,20,02,32,6.80
2010,05,20,02,33,7.80
2010,05,20,02,34,9.40
2010,05,20,02,35,8.10
2010,05,20,02,36,5.90
2010,05,20,02,37,15.70
2010,05,20,02,38,14.50
2010,05,20,02,39,9.20
2010,05,20,02,40,7.20
2010,05,20,02,41,4.80
2010,05,20,02,42,9.30
2010,05,20,02,43,6.70
2010,05,20,02,44,13.30
2010,05,20,02,45,12.60
2010,05,20,02,46,6.40
2010,05,20,02,47,7.50
2010,05,20,02,48,13.80
2010,05,20,02,49,10.30
2010,05,20,02,50,12.90
2010,05,20,02,51,17.30
2010,05,20,02,52,21.70
2010,05,20,02,53,10.10
2010,05,20,02,54,10.20
2010,05,20,02,55,17.80
2010,05,20,02,56,13.80
2010,05,20,02,57,14.60
2010,05,20,02,58,18.80
2010,05,20,02,59,20.80
2010,05,20,03,00,16.50
2010,05,20,03,01,14.60
2010,05,20,03,02,14.60
2010,05,20,03,03,13.10
2010,05,20,03,04,7.20
2010,05,20,03,05,14.00
2010,05,20,03,06,16.70
2010,05,20,03,07,15.20
2010,05,20,03,08,20.10
2010,05,20,03,09,11.30
2010,05,20,03,10,14.90
2010,05,20,03,11,9.90
2010,05,20,03,12,19.80
2010,05,20,03,13,18.30
2010,05,20,03,14,19.80
2010,05,20,03,15,10.60
2010,05,20,03,16,15.10
2010,05,20,03,17,17.10
2010,05,20,03,18,14.10
2010,05,20,03,19,13.60
2010,05,20,03,20,17.60
2010,05,20,03,21,6.10
2010,05,20,03,22,12.10
2010,05,20,03,23,12.10
2010,05,20,03,24,7.80
2010,05,20,03,25,14.80
2010,05,20,03,26,8.60
2010,05,20,03,27,12.50
2010,05,20,03,28,14.30
2010,05,20,03,29,9.30
2010,05,20,03,30,10.70
2010,05,20,03,31,19.60
2010,05,20,03,32,16.80
2010,05,20,03,33,16.00
2010,05,20,03,34,7.90
2010,05,20,03,35,14.30
2010,05,20,03,36,17.30
2010,05,20,03,37,13.50
2010,05,20,03,38,5.60
2010,05,20,03,39,11.90
2010,05,20,03,40,12.80
2010,05,20,03,41,14.30
2010,05,20,03,42,11.90
2010,05,20,03,43,13.20
2010,05,20,03,44,10.80
2010,05,20,03,45,24.70
2010,05,20,03,46,15.60
2010,05,20,03,47,15.30
2010,05,20,03,48,13.20
2010,05,20,03,49,12.10
2010,05,20,03,50,10.70
2010,05,20,03,51,26.40
2010,05,20,03,52,13.20
2010,05,20,03,53,5.00
2010,05,20,03,54,10.20
2010,05,20,03,55,18.40
2010,05,20,03,56,15.20
2010,05,20,03,57,8.30
2010,05,20,03,58,9.10
2010,05,20,03,59,13.80
2010,05,20,04,00,13.50
2010,05,20,04,01,13.60
2010,05,20,04,02,8.00
2010,05,20,04,03,9.10
2010,05,20,04,04,18.40
2010,05,20,04,05,15.90
2010,05,20,04,06,13.00
2010,05,20,04,07,13.50
2010,05,20,04,08,17.60
2010,05,20,04,09,9.10
2010,05,20,04,10,14.80
2010,05,20,04,11,13.40
2010,05,20,04,12,13.80
2010,05,20,04,13,5.60
2010,05,20,04,14,20.70
2010,05,20,04,15,14.70
2010,05,20,04,16,6.70
2010,05,20,04,17,14.90
2010,05,20,04,18,8.90
2010,05,20,04,19,11.80
2010,05,20,04,20,15.60
2010,05,20,04,21,14.60
2010,05,20,04,22,13.60
2010,05,20,04,23,16.70
2010,05,20,04,24,18.10
2010,05,20,04,25,13.80
2010,05,20,04,26,22.20
2010,05,20,04,27,20.00
2010,05,20,04,28,9.10
2010,05,20,04,29,17.30
2010,05,20,04,30,9.30
2010,05,20,04,31,18.40
2010,05,20,04,32,11.20
2010,05,20,04,33,15.70
2010,05,20,04,34,17.90
2010,05,20,04,35,14.60
2010,05,20,04,36,13.10
2010,05,20,04,37,6.80
2010,05,20,04,38,8.70
2010,05,20,04,39,9.40
2010,05,20,04,40,12.50
2010,05,20,04,41,18.20
2010,05,20,04,42,10.00
2010,05,20,04,43,13.50
2010,05,20,04,44,16.70
2010,05,20,04,45,17.30
2010,05,20,04,46,23.50
2010,05,20,04,47,15.30
2010,05,20,04,48,14.30
2010,05,20,04,49,12.10
2010,05,20,04,50,15.20
2010,05,20,04,51,16.50
2010,05,20,04,52,16.60
2010,05,20,04,53,12.70
2010,05,20,04,54,14.00
2010,05,20,04,55,15.60
2010,05,20,04,56,17.10
2010,05,20,04,57,12.70
2010,05,20,04,58,9.60
2010,05,20,04,59,11.10
2010,05,20,05,00,19.20
2010,05,20,05,01,18.20
2010,05,20,05,02,13.00
2010,05,20,05,03,16.00
2010,05,20,05,04,14.30
2010,05,20,05,05,14.10
2010,05,20,05,06,18.40
2010,05,20,05,07,20.00
2010,05,20,05,08,19.90
2010,05,20,05,09,22.50
2010,05,20,05,10,18.80
2010,05,20,05,11,20.10
2010,05,20,05,12,13.00
2010,05,20,05,13,17.60
2010,05,20,05,14,14.60
2010,05,20,05,15,21.00
2010,05,20,05,16,11.80
2010,05,20,05,17,12.20
2010,05,20,05,18,13.80
2010,05,20,05,19,13.50
2010,05,20,05,20,12.80
2010,05,20,05,21,17.80
2010,05,20,05,22,14.50
2010,05,20,05,23,8.80
2010,05,20,05,24,12.60
2010,05,20,05,25,8.80
2010,05,20,05,26,12.70
2010,05,20,05,27,9.00
2010,05,20,05,28,9.50
2010,05,20,05,29,13.60
2010,05,20,05,30,12.40
2010,05,20,05,31,11.80
2010,05,20,05,32,8.30
2010,05,20,05,33,17.00
2010,05,20,05,34,14.00
2010,05,20,05,35,9.40
2010,05,20,05,36,13.20
2010,05,20,05,37,14.30
2010,05,20,05,38,13.50
2010,05,20,05,39,15.00
2010,05,20,05,40,16.50
2010,05,20,05,41,8.70
2010,05,20,05,42,10.80
2010,05,20,05,43,13.60
2010,05,20,05,44,13.80
2010,05,20,05,45,11.30
2010,05,20,05,46,12.80
2010,05,20,05,47,13.30
2010,05,20,05,48,11.30
2010,05,20,05,49,9.00
2010,05,20,05,50,16.30
2010,05,20,05,51,13.30
2010,05,20,05,52,17.40
2010,05,20,05,53,10.00
2010,05,20,05,54,8.60
2010,05,20,05,55,14.70
2010,05,20,05,56,10.10
2010,05,20,05,57,14.30
2010,05,20,05,58,11.90
2010,05,20,05,59,18.10
2010,05,20,06,00,8.00
2010,05,20,06,01,12.30
2010,05,20,06,02,16.50
2010,05,20,06,03,10.80
2010,05,20,06,04,17.30
2010,05,20,06,05,9.10
2010,05,20,06,06,9.70
2010,05,20,06,07,17.00
2010,05,20,06,08,14.80
2010,05,20,06,09,8.60
2010,05,20,06,10,15.20
2010,05,20,06,11,21.80
2010,05,20,06,12,17.70
2010,05,20,06,13,16.70
2010,05,20,06,14,14.90
2010,05,20,06,15,7.20
2010,05,20,06,16,12.40
2010,05,20,06,17,16.70
2010,05,20,06,18,11.80
2010,05,20,06,19,11.30
2010,05,20,06,20,13.50
2010,05,20,06,21,15.10
2010,05,20,06,22,15.70
2010,05,20,06,23,12.80
2010,05,20,06,24,14.80
2010,05,20,06,25,12.30
2010,05,20,06,26,16.40
2010,05,20,06,27,3.90
2010,05,20,06,28,11.80
2010,05,20,06,29,8.90
2010,05,20,06,30,9.30
2010,05,20,06,31,9.60
2010,05,20,06,32,10.80
2010,05,20,06,33,9.50
2010,05,20,06,34,15.10
2010,05,20,06,35,6.40
2010,05,20,06,36,5.30
2010,05,20,06,37,15.90
2010,05,20,06,38,13.80
2010,05,20,06,39,9.40
2010,05,20,06,40,15.50
2010,05,20,06,41,6.20
2010,05,20,06,42,17.80
2010,05,20,06,43,12.80
2010,05,20,06,44,13.40
2010,05,20,06,45,16.30
2010,05,20,06,46,17.20
2010,05,20,06,47,11.30
2010,05,20,06,48,14.20
2010,05,20,06,49,12.60
2010,05,20,06,50,17.60
2010,05,20,06,51,12.10
2010,05,20,06,52,9.60
2010,05,20,06,53,14.20
2010,05,20,06,54,10.60
2010,05,20,06,55,13.40
2010,05,20,06,56,18.80
2010,05,20,06,57,14.00
2010,05,20,06,58,20.50
2010,05,20,06,59,16.20
2010,05,20,07,00,19.50
2010,05,20,07,01,15.40
2010,05,20,07,02,22.70
2010,05,20,07,03,17.10
2010,05,20,07,04,24.90
2010,05,20,07,05,15.20
2010,05,20,07,06,20.30
2010,05,20,07,07,14.50
2010,05,20,07,08,12.30
2010,05,20,07,09,9.90
2010,05,20,07,10,9.70
2010,05,20,07,11,9.70
2010,05,20,07,12,7.50
2010,05,20,07,13,6.80
2010,05,20,07,14,7.80
2010,05,20,07,15,7.40
2010,05,20,07,16,5.30
2010,05,20,07,17,7.60
2010,05,20,07,18,7.50
2010,05,20,07,19,8.30
2010,05,20,07,20,11.50
2010,05,20,07,21,15.50
2010,05,20,07,22,15.10
2010,05,20,07,23,14.60
2010,05,20,07,24,14.70
2010,05,20,07,25,18.40
2010,05,20,07,26,8.40
2010,05,20,07,27,14.30
2010,05,20,07,28,15.60
2010,05,20,07,29,11.00
2010,05,20,07,30,9.80
2010,05,20,07,31,11.00
2010,05,20,07,32,8.90
2010,05,20,07,33,10.30
2010,05,20,07,34,16.70
2010,05,20,07,35,12.60
2010,05,20,07,36,13.50
2010,05,20,07,37,13.50
2010,05,20,07,38,9.50
2010,05,20,07,39,8.30
2010,05,20,07,40,9.20
2010,05,20,07,41,6.50
2010,05,20,07,42,9.00
2010,05,20,07,43,13.80
2010,05,20,07,44,14.20
2010,05,20,07,45,11.30
2010,05,20,07,46,11.80
2010,05,20,07,47,8.40
2010,05,20,07,48,9.50
2010,05,20,07,49,9.10
2010,05,20,07,50,13.70
2010,05,20,07,51,12.80
2010,05,20,07,52,11.30
2010,05,20,07,53,9.40
2010,05,20,07,54,10.30
2010,05,20,07,55,10.70
2010,05,20,07,56,12.10
2010,05,20,07,57,12.00
2010,05,20,07,58,9.30
2010,05,20,07,59,14.90
2010,05,20,08,00,15.90
2010,05,20,08,01,14.80
2010,05,20,08,02,16.90
2010,05,20,08,03,15.10
2010,05,20,08,04,16.50
2010,05,20,08,05,13.20
2010,05,20,08,06,11.50
2010,05,20,08,07,8.60
2010,05,20,08,08,14.00
2010,05,20,08,09,9.30
2010,05,20,08,10,7.70
2010,05,20,08,11,13.70
2010,05,20,08,12,13.60
2010,05,20,08,13,15.00
2010,05,20,08,14,8.30
2010,05,20,08,15,12.10
2010,05,20,08,16,12.00
2010,05,20,08,17,4.30
2010,05,20,08,18,8.30
2010,05,20,08,19,11.10
2010,05,20,08,20,11.90
2010,05,20,08,21,9.90
2010,05,20,08,22,7.00
2010,05,20,08,23,9.70
2010,05,20,08,24,9.80
2010,05,20,08,25,7.00
2010,05,20,08,26,8.40
2010,05,20,08,27,12.60
2010,05,20,08,28,7.00
2010,05,20,08,29,5.80
2010,05,20,08,30,7.00
2010,05,20,08,31,8.10
2010,05,20,08,32,7.20
2010,05,20,08,33,8.90
2010,05,20,08,34,4.50
2010,05,20,08,35,5.00
2010,05,20,08,36,4.20
2010,05,20,08,37,6.10
2010,05,20,08,38,9.70
2010,05,20,08,39,1.80
2010,05,20,08,40,6.80
2010,05,20,08,41,3.70
2010,05,20,08,42,5.40
2010,05,20,08,43,3.60
2010,05,20,08,44,1.90
2010,05,20,08,45,1.50
2010,05,20,08,46,3.40
2010,05,20,08,47,2.60
2010,05,20,08,48,3.60
2010,05,20,08,49,7.80
2010,05,20,08,50,2.90
2010,05,20,08,51,3.10
2010,05,20,08,52,2.20
2010,05,20,08,53,3.40
2010,05,20,08,54,1.10
2010,05,20,08,55,4.90
2010,05,20,08,56,6.50
2010,05,20,08,57,7.90
2010,05,20,08,58,9.70
2010,05,20,08,59,6.70
2010,05,20,09,00,5.60
2010,05,20,09,01,4.00
2010,05,20,09,02,6.70
2010,05,20,09,03,4.50
2010,05,20,09,04,2.00
2010,05,20,09,05,1.00
2010,05,20,09,06,3.90
2010,05,20,09,07,4.20
2010,05,20,09,08,4.80
2010,05,20,09,09,8.20
2010,05,20,09,10,2.00
2010,05,20,09,11,4.30
2010,05,20,09,12,7.90
2010,05,20,09,13,5.60
2010,05,20,09,14,0.40
2010,05,20,09,15,6.10
2010,05,20,09,16,7.50
2010,05,20,09,17,3.40
2010,05,20,09,18,8.80
2010,05,20,09,19,12.30
2010,05,20,09,20,19.20
2010,05,20,09,21,15.10
2010,05,20,09,22,18.30
2010,05,20,09,23,18.50
2010,05,20,09,24,17.30
2010,05,20,09,25,14.60
2010,05,20,09,26,10.80
2010,05,20,09,27,14.50
2010,05,20,09,28,11.90
2010,05,20,09,29,16.00
2010,05,20,09,30,13.20
2010,05,20,09,31,15.40
2010,05,20,09,32,12.30
2010,05,20,09,33,15.90
2010,05,20,09,34,16.80
2010,05,20,09,35,11.30
2010,05,20,09,36,18.20
2010,05,20,09,37,14.00
2010,05,20,09,38,10.90
2010,05,20,09,39,14.10
2010,05,20,09,40,8.30
2010,05,20,09,41,12.30
2010,05,20,09,42,9.10
2010,05,20,09,43,13.00
2010,05,20,09,44,13.50
2010,05,20,09,45,10.80
2010,05,20,09,46,9.90
2010,05,20,09,47,7.10
2010,05,20,09,48,8.70
2010,05,20,09,49,8.70
2010,05,20,09,50,17.80
2010,05,20,09,51,18.10
2010,05,20,09,52,11.50
2010,05,20,09,53,16.20
2010,05,20,09,54,14.60
2010,05,20,09,55,12.50
2010,05,20,09,56,13.10
2010,05,20,09,57,13.20
2010,05,20,09,58,14.90
2010,05,20,09,59,10.90
2010,05,20,10,00,8.00
2010,05,20,10,01,14.20
2010,05,20,10,02,15.70
2010,05,20,10,03,8.10
2010,05,20,10,04,3.70
2010,05,20,10,05,6.60
2010,05,20,10,06,4.90
2010,05,20,10,07,5.00
2010,05,20,10,08,3.70
2010,05,20,10,09,3.70
2010,05,20,10,10,5.80
2010,05,20,10,11,5.70
2010,05,20,10,12,3.20
2010,05,20,10,13,7.00
2010,05,20,10,14,4.00
2010,05,20,10,15,2.30
2010,05,20,10,16,5.10
2010,05,20,10,17,4.00
2010,05,20,10,18,1.80
2010,05,20,10,19,6.70
2010,05,20,10,20,6.70
2010,05,20,10,21,6.40
2010,05,20,10,22,6.40
2010,05,20,10,23,6.40
2010,05,20,10,24,6.40
2010,05,20,10,25,6.40
2010,05,20,10,26,6.40
2010,05,20,10,27,4.70
2010,05,20,10,28,4.80
2010,05,20,10,29,9.80
2010,05,20,10,30,8.10
2010,05,20,10,31,10.20
2010,05,20,10,32,4.20
2010,05,20,10,33,4.20
2010,05,20,10,34,5.30
2010,05,20,10,35,10.50
2010,05,20,10,36,13.40
2010,05,20,10,37,13.50
2010,05,20,10,38,12.70
2010,05,20,10,39,9.30
2010,05,20,10,40,7.10
2010,05,20,10,41,5.80
2010,05,20,10,42,8.30
2010,05,20,10,43,7.50
2010,05,20,10,44,7.90
2010,05,20,10,45,5.30
2010,05,20,10,46,8.30
2010,05,20,10,47,6.40
2010,05,20,10,48,9.90
2010,05,20,10,49,6.20
2010,05,20,10,50,7.00
2010,05,20,10,51,8.00
2010,05,20,10,52,5.70
2010,05,20,10,53,2.80
2010,05,20,10,54,9.80
2010,05,20,10,55,7.60
2010,05,20,10,56,5.00
2010,05,20,10,57,6.20
2010,05,20,10,58,9.90
2010,05,20,10,59,7.70
2010,05,20,11,00,6.30
2010,05,20,11,01,4.30
2010,05,20,11,02,3.30
2010,05,20,11,03,7.00
2010,05,20,11,04,5.70
2010,05,20,11,05,6.00
2010,05,20,11,06,9.50
2010,05,20,11,07,4.20
2010,05,20,11,08,7.00
2010,05,20,11,09,5.00
2010,05,20,11,10,2.90
2010,05,20,11,11,3.40
2010,05,20,11,12,6.40
2010,05,20,11,13,3.40
2010,05,20,11,14,6.00
2010,05,20,11,15,6.50
2010,05,20,11,16,8.60
2010,05,20,11,17,7.70
2010,05,20,11,18,8.00
2010,05,20,11,19,4.20
2010,05,20,11,20,9.20
2010,05,20,11,21,8.30
2010,05,20,11,22,9.40
2010,05,20,11,23,5.50
2010,05,20,11,24,8.70
2010,05,20,11,25,4.20
2010,05,20,11,26,4.00
2010,05,20,11,27,4.00
2010,05,20,11,28,3.60
2010,05,20,11,29,5.20
2010,05,20,11,30,15.70
2010,05,20,11,31,12.50
2010,05,20,11,32,7.40
2010,05,20,11,33,16.10
2010,05,20,12,01,13.40
2010,05,20,12,02,10.60
2010,05,20,12,03,10.90
2010,05,20,12,04,11.40
2010,05,20,12,05,8.50
2010,05,20,12,06,4.70
2010,05,20,12,07,6.40
2010,05,20,12,08,8.70
2010,05,20,12,09,11.40
2010,05,20,12,10,7.00
2010,05,20,12,11,5.90
2010,05,20,12,12,7.50
2010,05,20,12,13,8.90
2010,05,20,12,14,8.70
2010,05,20,12,15,6.70
2010,05,20,12,16,8.10
2010,05,20,12,17,7.10
2010,05,20,12,18,8.80
2010,05,20,12,19,6.10
2010,05,20,12,20,8.80
2010,05,20,12,21,8.30
2010,05,20,12,22,9.70
2010,05,20,12,23,16.00
2010,05,20,12,24,13.20
2010,05,20,12,25,9.60
2010,05,20,12,26,12.10
2010,05,20,12,27,9.20
2010,05,20,12,28,13.50
2010,05,20,12,29,14.30
2010,05,20,12,30,17.90
2010,05,20,12,31,14.20
2010,05,20,12,32,13.50
2010,05,20,12,33,14.90
2010,05,20,12,34,12.60
2010,05,20,12,35,11.60
2010,05,20,12,36,12.90
2010,05,20,12,37,8.20
2010,05,20,12,38,12.20
2010,05,20,12,39,14.60
2010,05,20,12,40,19.10
2010,05,20,12,41,18.30
2010,05,20,12,42,19.50
2010,05,20,12,43,17.60
2010,05,20,12,44,14.70
2010,05,20,12,45,21.60
2010,05,20,12,46,20.40
2010,05,20,12,47,16.50
2010,05,20,12,48,19.20
2010,05,20,12,49,11.50
2010,05,20,12,50,15.10
2010,05,20,12,51,14.50
2010,05,20,12,52,16.60
2010,05,20,12,53,14.20
2010,05,20,12,54,18.40
2010,05,20,12,55,9.40
2010,05,20,12,56,11.60
2010,05,20,12,57,10.90
2010,05,20,12,58,6.20
2010,05,20,12,59,14.30
2010,05,20,13,00,11.40
2010,05,20,13,01,15.60
2010,05,20,13,02,16.70
2010,05,20,13,03,17.30
2010,05,20,13,04,17.40
2010,05,20,13,05,7.60
2010,05,20,13,06,12.10
2010,05,20,13,07,14.90
2010,05,20,13,08,18.90
2010,05,20,13,09,18.00
2010,05,20,13,10,12.70
2010,05,20,13,11,15.90
2010,05,20,13,12,11.40
2010,05,20,13,13,16.90
2010,05,20,13,14,12.90
2010,05,20,13,15,10.80
2010,05,20,13,16,9.10
2010,05,20,13,17,10.50
2010,05,20,13,18,13.90
2010,05,20,13,19,9.10
2010,05,20,13,20,6.00
2010,05,20,13,21,11.90
2010,05,20,13,22,7.30
2010,05,20,13,23,2.20
2010,05,20,13,24,8.10
2010,05,20,13,25,14.60
2010,05,20,13,26,16.80
2010,05,20,13,27,15.20
2010,05,20,13,28,10.60
2010,05,20,13,29,6.70
2010,05,20,13,30,15.30
2010,05,20,13,31,15.10
2010,05,20,13,32,13.10
2010,05,20,13,33,9.00
2010,05,20,13,34,7.50
2010,05,20,13,35,17.10
2010,05,20,13,36,14.90
2010,05,20,13,37,13.20
2010,05,20,13,38,13.00
2010,05,20,13,39,13.50
2010,05,20,13,40,13.60
2010,05,20,13,41,7.80
2010,05,20,13,42,11.00
2010,05,20,13,43,11.60
2010,05,20,13,44,7.90
2010,05,20,13,45,13.50
2010,05,20,13,46,18.40
2010,05,20,13,47,17.60
2010,05,20,13,48,24.90
2010,05,20,13,49,17.30
2010,05,20,13,50,18.00
2010,05,20,13,51,15.40
2010,05,20,13,52,11.70
2010,05,20,13,53,14.20
2010,05,20,13,54,21.20
2010,05,20,13,55,17.50
2010,05,20,13,56,17.20
2010,05,20,13,57,18.80
2010,05,20,13,58,12.70
2010,05,20,13,59,8.70
2010,05,20,14,00,8.60
2010,05,20,14,01,12.00
2010,05,20,14,02,7.10
2010,05,20,14,03,14.50
2010,05,20,14,04,9.60
2010,05,20,14,05,16.30
2010,05,20,14,06,6.50
2010,05,20,14,07,2.80
2010,05,20,14,08,13.70
2010,05,20,14,09,14.20
2010,05,20,14,10,12.70
2010,05,20,14,11,9.90
2010,05,20,14,12,1.40
2010,05,20,14,13,7.40
2010,05,20,14,14,4.60
2010,05,20,14,15,5.70
2010,05,20,14,16,7.10
2010,05,20,14,17,3.00
2010,05,20,14,18,7.40
2010,05,20,14,19,8.00
2010,05,20,14,20,10.90
2010,05,20,14,21,12.40
2010,05,20,14,22,11.00
2010,05,20,14,23,14.20
2010,05,20,14,24,13.40
2010,05,20,14,25,8.00
2010,05,20,14,26,6.70
2010,05,20,14,27,11.60
2010,05,20,14,28,14.50
2010,05,20,14,29,8.90
2010,05,20,14,30,1.80
2010,05,20,14,31,12.50
2010,05,20,14,32,6.20
2010,05,20,14,33,9.10
2010,05,20,14,34,7.00
2010,05,20,14,35,17.50
2010,05,20,14,36,14.00
2010,05,20,14,37,9.40
2010,05,20,14,38,12.10
2010,05,20,14,39,9.80
2010,05,20,14,40,6.90
2010,05,20,14,41,7.70
2010,05,20,14,42,5.30
2010,05,20,14,43,10.50
2010,05,20,14,44,7.50
2010,05,20,14,45,6.30
2010,05,20,14,46,15.20
2010,05,20,14,47,6.60
2010,05,20,14,48,7.20
2010,05,20,14,49,15.80
2010,05,20,14,50,7.90
2010,05,20,14,51,8.60
2010,05,20,14,52,15.10
2010,05,20,14,53,6.90
2010,05,20,14,54,8.60
2010,05,20,14,55,5.20
2010,05,20,14,56,4.80
2010,05,20,14,57,8.30
2010,05,20,14,58,7.80
2010,05,20,14,59,8.30
2010,05,20,15,00,10.40
2010,05,20,15,01,13.00
2010,05,20,15,02,10.00
2010,05,20,15,03,9.40
2010,05,20,15,04,8.40
2010,05,20,15,05,7.60
2010,05,20,15,06,3.70
2010,05,20,15,07,7.30
2010,05,20,15,08,7.30
2010,05,20,15,09,8.30
2010,05,20,15,10,10.80
2010,05,20,15,11,9.30
2010,05,20,15,12,9.00
2010,05,20,15,13,6.30
2010,05,20,15,14,10.90
2010,05,20,15,15,12.60
2010,05,20,15,16,10.10
2010,05,20,15,17,10.70
2010,05,20,15,18,9.60
2010,05,20,15,19,6.50
2010,05,20,15,20,6.30
2010,05,20,15,21,11.30
2010,05,20,15,22,7.90
2010,05,20,15,23,9.00
2010,05,20,15,24,9.60
2010,05,20,15,25,10.30
2010,05,20,15,26,6.20
2010,05,20,15,27,7.00
2010,05,20,15,28,10.60
2010,05,20,15,29,21.50
2010,05,20,15,30,12.90
2010,05,20,15,31,17.60
2010,05,20,15,32,18.00
2010,05,20,15,33,10.20
2010,05,20,15,34,7.90
2010,05,20,15,35,6.70
2010,05,20,15,36,10.80
2010,05,20,15,37,9.00
2010,05,20,15,38,8.10
2010,05,20,15,39,12.60
2010,05,20,15,40,9.00
2010,05,20,15,41,9.60
2010,05,20,15,42,8.30
2010,05,20,15,43,3.50
2010,05,20,15,44,9.10
2010,05,20,15,45,5.60
2010,05,20,15,46,5.90
2010,05,20,15,47,8.70
2010,05,20,15,48,9.10
2010,05,20,15,49,8.20
2010,05,20,15,50,11.20
2010,05,20,15,51,6.90
2010,05,20,15,52,7.00
2010,05,20,15,53,9.10
2010,05,20,15,54,7.30
2010,05,20,15,55,8.90
2010,05,20,15,56,3.80
2010,05,20,15,57,5.60
2010,05,20,15,58,9.70
2010,05,20,15,59,6.20
2010,05,20,16,00,4.60
2010,05,20,16,01,3.30
2010,05,20,16,02,7.20
2010,05,20,16,03,3.90
2010,05,20,16,04,2.30
2010,05,20,16,05,5.20
2010,05,20,16,06,4.40
2010,05,20,16,07,10.30
2010,05,20,16,08,9.70
2010,05,20,16,09,8.00
2010,05,20,16,10,4.20
2010,05,20,16,11,4.50
2010,05,20,16,12,1.90
2010,05,20,16,13,0.90
2010,05,20,16,14,5.00
2010,05,20,16,15,2.00
2010,05,20,16,16,5.90
2010,05,20,16,17,4.80
2010,05,20,16,18,7.30
2010,05,20,16,19,1.20
2010,05,20,16,20,2.30
2010,05,20,16,21,8.10
2010,05,20,16,22,6.30
2010,05,20,16,23,8.60
2010,05,20,16,24,1.20
2010,05,20,16,25,1.50
2010,05,20,16,26,3.10
2010,05,20,16,27,13.40
2010,05,20,16,28,6.80
2010,05,20,16,29,7.40
2010,05,20,16,30,3.10
2010,05,20,16,31,1.00
2010,05,20,16,32,4.00
2010,05,20,16,33,1.70
2010,05,20,16,34,7.30
2010,05,20,16,35,10.90
2010,05,20,16,36,5.50
2010,05,20,16,37,6.10
2010,05,20,16,38,6.10
2010,05,20,16,39,3.40
2010,05,20,16,40,4.30
2010,05,20,16,41,5.10
2010,05,20,16,42,6.80
2010,05,20,16,43,6.70
2010,05,20,16,44,12.10
2010,05,20,16,45,13.20
2010,05,20,16,46,9.40
2010,05,20,16,47,13.80
2010,05,20,16,48,9.00
2010,05,20,16,49,9.20
2010,05,20,16,50,7.70
2010,05,20,16,51,2.20
2010,05,20,16,52,3.90
2010,05,20,16,53,2.80
2010,05,20,16,54,2.80
2010,05,20,16,55,8.20
2010,05,20,16,56,9.30
2010,05,20,16,57,5.10
2010,05,20,16,58,4.20
2010,05,20,16,59,8.10
2010,05,20,17,00,7.50
2010,05,20,17,01,10.50
2010,05,20,17,02,9.20
2010,05,20,17,03,4.90
2010,05,20,17,04,5.40
2010,05,20,17,05,3.10
2010,05,20,17,06,3.90
2010,05,20,17,07,6.00
2010,05,20,17,08,6.10
2010,05,20,17,09,6.30
2010,05,20,17,10,10.10
2010,05,20,17,11,5.60
2010,05,20,17,12,4.10
2010,05,20,17,13,5.50
2010,05,20,17,14,10.80
2010,05,20,17,15,4.30
2010,05,20,17,16,5.70
2010,05,20,17,17,2.60
2010,05,20,17,18,7.20
2010,05,20,17,19,5.90
2010,05,20,17,20,1.20
2010,05,20,17,21,5.90
2010,05,20,17,22,1.60
2010,05,20,17,23,1.00
2010,05,20,17,24,6.10
2010,05,20,17,25,4.80
2010,05,20,17,26,5.10
2010,05,20,17,27,9.40
2010,05,20,17,28,1.20
2010,05,20,17,29,0.70
2010,05,20,17,30,5.60
2010,05,20,17,31,1.00
2010,05,20,17,32,5.30
2010,05,20,17,33,1.50
2010,05,20,17,34,5.00
2010,05,20,17,35,0.70
2010,05,20,17,36,0.00
2010,05,20,17,37,4.00
2010,05,20,17,38,7.00
2010,05,20,17,39,1.00
2010,05,20,17,40,1.50
2010,05,20,17,41,0.10
2010,05,20,17,42,0.50
2010,05,20,17,43,1.80
2010,05,20,17,44,4.90
2010,05,20,17,45,5.80
2010,05,20,17,46,3.70
2010,05,20,17,47,3.40
2010,05,20,17,48,4.20
2010,05,20,17,49,5.60
2010,05,20,17,50,6.60
2010,05,20,17,51,4.80
2010,05,20,17,52,3.30
2010,05,20,17,53,3.20
2010,05,20,17,54,7.80
2010,05,20,17,55,5.90
2010,05,20,17,56,5.10
2010,05,20,17,57,3.80
2010,05,20,17,58,2.10
2010,05,20,17,59,4.20
2010,05,20,18,00,5.10
2010,05,20,18,01,2.00
2010,05,20,18,02,5.70
2010,05,20,18,03,14.50
2010,05,20,18,04,14.20
2010,05,20,18,05,13.40
2010,05,20,18,06,10.30
2010,05,20,18,07,15.10
2010,05,20,18,08,13.60
2010,05,20,18,09,14.50